Regional Weather Roundup
Issued by NWS

Home | Current Version | Previous Version | Graphics & Text | Print | Product List | Glossary On
Versions: 1 2 3 4 5 6 7 8 9 10 11 12 13 14 15 16 17 18 19 20 21 22 23 24 25 26 27 28 29 30 31 32 33 34 35 36 37 38 39 40 41 42 43 44 45 46 47 48 49 50
000
ASUS45 KABQ 050110
RWRNM
NEW MEXICO REGIONAL WEATHER ROUNDUP
NATIONAL WEATHER SERVICE ALBUQUERQUE NM
600 PM MST SUN DEC 04 2016

NOTE: "FAIR" MEANS FEW OR NO CLOUDS BELOW 12,000 FEET AGL WITH NO
       SIGNIFICANT WEATHER OR OBSTRUCTIONS TO VISION.

      THIS PRODUCT IS RELEASED AS TWO VERSIONS.  ONE VERSION NEAR
      THE TOP OF THE HOUR CONTAINING PRELIMINARY DATA FROM ALBUQUERQUE
      AND OTHER STATIONS.  A FINAL VERSION WITH ADDITIONAL DATA IS
      ISSUED ABOUT 10 MINUTES AFTER THE HOUR.

NMZ501-503-504-510>518-050200-
NORTHWEST PLATEAU/NORTHCENTRAL MOUNTAINS

CITY           SKY/WX    TMP DP  RH WIND       PRES   REMARKS
FARMINGTON     FAIR      33  17  51 CALM      30.08F
LOS ALAMOS     FAIR      35  16  45 SW5       30.07S WCI  31
SANTA FE       FAIR      37  14  38 SW6       30.05S WCI  32
TAOS           FAIR      27  10  50 E7        30.05S WCI  19
ANGEL FIRE     FAIR      29   8  41 S3        30.06S

$$
NMZ402-403-502-505>509-050200-
WESTCENTRAL MOUNTAINS/SOUTHWEST MOUNTAINS

CITY           SKY/WX    TMP DP  RH WIND       PRES   REMARKS
GALLUP         FAIR      35  20  54 SW5       30.10R WCI  31
GRANTS         FAIR      32  15  49 SW6       30.10R WCI  26
SILVER CITY    FAIR      43  26  52 S3        30.06S

$$
NMZ407-409-411-412-050200-
SOUTHERN DESERTS

CITY           SKY/WX    TMP DP  RH WIND       PRES   REMARKS
DEMING         FAIR      45  27  49 SW3       30.04S
LAS CRUCES     FAIR      43  22  43 S3        30.05R
HOLLOMAN AFB   FAIR      46  25  44 CALM      30.06S
T OR C         FAIR      43  14  31 N3        30.04S

$$
NMZ519>523-050200-
CENTRAL VALLEYS/CENTRAL HIGHLANDS

CITY           SKY/WX    TMP DP  RH WIND       PRES   REMARKS
ALBUQUERQUE    FAIR      43  14  31 CALM      30.07R
DOUBLE EAGLE   CLEAR     30  14  51 SW5       30.08R WCI  25
MORIARTY ARPT  FAIR      32   8  36 W5        30.06R WCI  27
CLINES CORNERS FAIR      25   8  48 W10       30.05R WCI  15
BELEN          FAIR      40  14  34 CALM      30.07R
SOCORRO        FAIR      38  15  38 NW5       30.06S WCI  35

$$
NMZ524>526-539-540-050200-
SOUTHCENTRAL MOUNTAINS

CITY           SKY/WX    TMP DP  RH WIND       PRES   REMARKS
RUIDOSO        FAIR      34  19  55 S8        30.07S WCI  27

$$
NMZ527>531-050200-
NORTHEAST HIGHLANDS/NORTHEAST PLAINS

CITY           SKY/WX    TMP DP  RH WIND       PRES   REMARKS
LAS VEGAS      FAIR      31  16  54 S14       30.00R WCI  21
RATON          FAIR      34  17  50 SW6       29.97S WCI  29
CLAYTON        FAIR      37  24  59 SW15      29.95F WCI  28

$$
NMZ532>537-050200-
EASTCENTRAL PLAINS

CITY           SKY/WX    TMP DP  RH WIND       PRES   REMARKS
TUCUMCARI      FAIR      35  23  61 SW9       30.00S WCI  28
CANNON AFB     FAIR      38  29  69 SW5       30.03F WCI  35
CLOVIS AIRPORT FAIR      34  25  69 S6        30.03F WCI  29

$$
NMZ028-029-538-050200-
SOUTHEAST PLAINS

CITY           SKY/WX    TMP DP  RH WIND       PRES   REMARKS
ROSWELL        FAIR      36  29  75 S8        30.05R WCI  30
ARTESIA        FAIR      36  36 100 SW5       30.07S WCI  32
CARLSBAD       FAIR      38  36  92 S5        30.07R WCI  34
HOBBS          CLEAR     41  36  81 CALM      30.06F


$$




USA.gov is the U.S. government's official web portal to all federal, state and local government web resources and services.